When you browse on this site, cookies collect data to enhance your experience and personalize the content and advertising you see.
Visit our Privacy Policy to learn more. By continuing to use the site, you agree to this use of cookies and data.
  • In United Kingdom
  • List of Countries
  • For 7 days
  • Water Temperature
  • Satellite Maps
  • Weather Map
  • Weather Widgets
  • user-avatar
    Login

    Hourly Weather Sumgayit

    Today, 25 April, Thursday

    Time Temperature Precipitation Wind Pressure Humidity
    00:00 +10°C° 0 mm 3 mps 747 mmHg 50%
    01:00 +10°C° 0 mm 3 mps 747 mmHg 50%
    02:00 +10°C° 0 mm 3 mps 747 mmHg 50%
    03:00 +10°C° 0 mm 2 mps 747 mmHg 51%
    04:00 +10°C° 0 mm 2 mps 747 mmHg 51%
    05:00 +10°C° 0 mm 2 mps 747 mmHg 52%
    06:00 +12°C° 0 mm 2 mps 748 mmHg 52%
    07:00 +13°C° 0 mm 2 mps 748 mmHg 47%
    08:00 +15°C° 0 mm 2 mps 748 mmHg 41%
    09:00 +16°C° 0 mm 2 mps 748 mmHg 36%
    10:00 +17°C° 0 mm 2 mps 748 mmHg 34%
    11:00 +17°C° 0 mm 2 mps 748 mmHg 32%
    12:00 +18°C° 0 mm 2 mps 749 mmHg 31%
    13:00 +18°C° 0 mm 3 mps 748 mmHg 32%
    14:00 +18°C° 0 mm 4 mps 748 mmHg 34%
    15:00 +17°C° 0 mm 5 mps 748 mmHg 36%
    16:00 +17°C° 0 mm 4 mps 748 mmHg 40%
    17:00 +15°C° 0 mm 4 mps 748 mmHg 43%
    18:00 +14°C° 0 mm 3 mps 748 mmHg 47%
    19:00 +13°C° 0 mm 3 mps 748 mmHg 49%
    20:00 +14°C° 0 mm 2 mps 748 mmHg 52%
    21:00 +13°C° 0 mm 1 mps 749 mmHg 54%
    22:00 +13°C° 0 mm 2 mps 748 mmHg 54%
    23:00 +13°C° 0 mm 2 mps 748 mmHg 54%

    Tomorrow, 26 April, Friday

    Time Temperature Precipitation Wind Pressure Humidity
    00:00 +12°C° 0 mm 2 mps 748 mmHg 54%
    01:00 +12°C° 0 mm 2 mps 748 mmHg 54%
    02:00 +12°C° 0 mm 2 mps 747 mmHg 53%
    03:00 +12°C° 0 mm 2 mps 747 mmHg 52%
    04:00 +12°C° 0 mm 2 mps 747 mmHg 52%
    05:00 +12°C° 0 mm 2 mps 747 mmHg 51%
    06:00 +12°C° 0 mm 2 mps 747 mmHg 50%
    07:00 +14°C° 0 mm 2 mps 747 mmHg 44%
    08:00 +14°C° 0 mm 3 mps 748 mmHg 38%
    09:00 +17°C° 0 mm 3 mps 748 mmHg 31%
    10:00 +17°C° 0 mm 3 mps 747 mmHg 30%
    11:00 +18°C° 0 mm 4 mps 747 mmHg 30%
    12:00 +19°C° 0 mm 4 mps 747 mmHg 29%
    13:00 +19°C° 0 mm 4 mps 747 mmHg 30%
    14:00 +19°C° 0 mm 5 mps 747 mmHg 31%
    15:00 +19°C° 0 mm 6 mps 746 mmHg 32%
    16:00 +17°C° 0 mm 6 mps 746 mmHg 33%
    17:00 +16°C° 0 mm 6 mps 746 mmHg 34%
    18:00 +15°C° 0 mm 6 mps 746 mmHg 36%
    19:00 +14°C° 0 mm 5 mps 746 mmHg 38%
    20:00 +14°C° 0 mm 4 mps 746 mmHg 40%
    21:00 +13°C° 0 mm 4 mps 746 mmHg 43%
    22:00 +12°C° 0 mm 4 mps 746 mmHg 45%
    23:00 +12°C° 0 mm 3 mps 746 mmHg 47%

    Day after tomorrow, 27 April, Saturday

    Time Temperature Precipitation Wind Pressure Humidity
    00:00 +11°C° 0 mm 3 mps 746 mmHg 49%
    01:00 +11°C° 0 mm 3 mps 746 mmHg 52%
    02:00 +11°C° 0 mm 3 mps 745 mmHg 54%
    03:00 +10°C° 0 mm 3 mps 745 mmHg 57%
    04:00 +11°C° 0 mm 3 mps 745 mmHg 59%
    05:00 +11°C° 0 mm 3 mps 745 mmHg 62%
    06:00 +11°C° 0 mm 3 mps 745 mmHg 64%
    07:00 +12°C° 0 mm 4 mps 745 mmHg 59%
    08:00 +13°C° 0 mm 5 mps 746 mmHg 53%
    09:00 +15°C° 0 mm 6 mps 746 mmHg 47%
    10:00 +16°C° 0 mm 7 mps 745 mmHg 44%
    11:00 +17°C° 0 mm 7 mps 745 mmHg 41%
    12:00 +17°C° 0 mm 8 mps 745 mmHg 38%
    13:00 +17°C° 0 mm 8 mps 745 mmHg 38%
    14:00 +17°C° 0 mm 8 mps 744 mmHg 38%
    15:00 +17°C° 0 mm 8 mps 744 mmHg 38%
    16:00 +16°C° 0 mm 7 mps 744 mmHg 41%
    17:00 +15°C° 0 mm 6 mps 743 mmHg 43%
    18:00 +14°C° 0 mm 6 mps 743 mmHg 46%
    19:00 +13°C° 0 mm 5 mps 743 mmHg 50%
    20:00 +13°C° 0 mm 4 mps 743 mmHg 54%
    21:00 +12°C° 0 mm 3 mps 744 mmHg 58%
    22:00 +12°C° 0 mm 3 mps 743 mmHg 58%
    23:00 +11°C° 0 mm 3 mps 743 mmHg 59%

    28 April, Sunday

    Time Temperature Precipitation Wind Pressure Humidity
    00:00 +11°C° 0 mm 3 mps 742 mmHg 60%
    01:00 +11°C° 0 mm 3 mps 742 mmHg 60%
    02:00 +11°C° 0 mm 3 mps 741 mmHg 60%
    03:00 +11°C° 0 mm 3 mps 741 mmHg 59%
    04:00 +11°C° 0 mm 4 mps 741 mmHg 60%
    05:00 +11°C° 0 mm 4 mps 741 mmHg 60%
    06:00 +11°C° 0 mm 4 mps 740 mmHg 61%
    07:00 +13°C° 0 mm 5 mps 740 mmHg 55%
    08:00 +14°C° 0 mm 6 mps 740 mmHg 50%
    09:00 +16°C° 0 mm 7 mps 740 mmHg 45%
    10:00 +17°C° 0 mm 7 mps 740 mmHg 41%
    11:00 +20°C° 0 mm 7 mps 740 mmHg 37%
    12:00 +21°C° 0 mm 8 mps 740 mmHg 33%
    13:00 +22°C° 0 mm 7 mps 739 mmHg 33%
    14:00 +22°C° 0 mm 7 mps 739 mmHg 33%
    15:00 +23°C° 0 mm 7 mps 738 mmHg 33%
    16:00 +22°C° 0 mm 7 mps 738 mmHg 36%
    17:00 +21°C° 0 mm 6 mps 738 mmHg 39%
    18:00 +20°C° 0 mm 6 mps 738 mmHg 42%
    19:00 +19°C° 0 mm 5 mps 738 mmHg 45%
    20:00 +18°C° 0 mm 4 mps 738 mmHg 49%
    21:00 +17°C° 0 mm 3 mps 739 mmHg 53%
    22:00 +16°C° 0 mm 3 mps 738 mmHg 54%
    23:00 +16°C° 0 mm 3 mps 738 mmHg 54%

    29 April, Monday

    Time Temperature Precipitation Wind Pressure Humidity
    00:00 +16°C° 0 mm 3 mps 738 mmHg 55%
    01:00 +15°C° 0 mm 2 mps 738 mmHg 55%
    02:00 +15°C° 0 mm 2 mps 737 mmHg 55%
    03:00 +15°C° 0 mm 2 mps 737 mmHg 55%
    04:00 +15°C° 0 mm 2 mps 738 mmHg 52%
    05:00 +16°C° 0 mm 2 mps 738 mmHg 50%
    06:00 +16°C° 0 mm 2 mps 738 mmHg 48%
    07:00 +17°C° 0 mm 2 mps 738 mmHg 43%
    08:00 +19°C° 0 mm 2 mps 739 mmHg 39%
    09:00 +21°C° 0 mm 1 mps 739 mmHg 34%
    10:00 +21°C° 0 mm 2 mps 739 mmHg 33%
    11:00 +23°C° 0 mm 2 mps 739 mmHg 33%
    12:00 +24°C° 0 mm 3 mps 739 mmHg 32%
    13:00 +24°C° 0 mm 3 mps 738 mmHg 32%
    14:00 +23°C° 0 mm 4 mps 738 mmHg 33%
    15:00 +23°C° 0 mm 4 mps 738 mmHg 33%
    16:00 +22°C° 0 mm 4 mps 738 mmHg 36%
    17:00 +21°C° 0 mm 4 mps 738 mmHg 38%
    18:00 +20°C° 0 mm 4 mps 738 mmHg 41%
    19:00 +19°C° 0 mm 3 mps 738 mmHg 43%
    20:00 +19°C° 0 mm 2 mps 738 mmHg 45%
    21:00 +19°C° 0 mm 1 mps 739 mmHg 47%
    22:00 +19°C° 0 mm 1 mps 739 mmHg 48%
    23:00 +19°C° 0 mm 1 mps 739 mmHg 49%

    30 April, Tuesday

    Time Temperature Precipitation Wind Pressure Humidity
    00:00 +19°C° 0 mm 1 mps 738 mmHg 50%
    01:00 +19°C° 0 mm 1 mps 738 mmHg 50%
    02:00 +19°C° 0 mm 1 mps 738 mmHg 50%
    03:00 +19°C° 0 mm 1 mps 739 mmHg 51%
    04:00 +19°C° 0 mm 1 mps 739 mmHg 51%
    05:00 +18°C° 0 mm 1 mps 739 mmHg 51%
    06:00 +18°C° 0 mm 1 mps 739 mmHg 52%
    07:00 +18°C° 0 mm 2 mps 740 mmHg 50%
    08:00 +19°C° 0 mm 2 mps 740 mmHg 47%
    09:00 +19°C° 0 mm 3 mps 740 mmHg 45%
    10:00 +21°C° 0 mm 3 mps 740 mmHg 43%
    11:00 +22°C° 0 mm 4 mps 740 mmHg 41%
    12:00 +23°C° 0 mm 4 mps 740 mmHg 39%
    13:00 +23°C° 0 mm 4 mps 740 mmHg 38%
    14:00 +23°C° 0 mm 5 mps 740 mmHg 38%
    15:00 +23°C° 0 mm 5 mps 739 mmHg 37%
    16:00 +22°C° 0 mm 5 mps 739 mmHg 40%
    17:00 +21°C° 0 mm 4 mps 739 mmHg 42%
    18:00 +19°C° 0 mm 4 mps 739 mmHg 44%
    19:00 +18°C° 0 mm 3 mps 740 mmHg 47%
    20:00 +18°C° 0 mm 3 mps 740 mmHg 49%
    21:00 +17°C° 0 mm 2 mps 740 mmHg 52%
    22:00 +17°C° 0 mm 2 mps 740 mmHg 53%
    23:00 +16°C° 0 mm 1 mps 740 mmHg 55%
    Show more